QPF
0.00 0.00 0.00 0.00 0.00 0.00 0.00 0.00 0.00 0.00 0.00 0.00 0.00 0.00 0.00 0.00 0.00 0.00 0.00 0.00 0.00 0.00 0.00 0.00 0.00 0.01 0.01 0.01 0.00 0.00 0.00 0.00 0.00 0.00 0.01 0.00 0.00 0.00 0.00 0.01 0.00 0.01 0.00 0.00 0.00 0.00 0.00
0.00 0.00 0.00 0.00 0.00 0.00 0.00 0.00 0.00 0.00 0.00 0.00 0.00 0.00 0.00 0.00 0.00 0.00 0.00 0.00 0.00 0.00 0.00 0.00 0.00 0.01 0.01 0.01 0.00 0.00 0.00 0.00 0.00 0.00 0.00 0.00 0.00 0.00 0.00 0.01 0.00 0.00 0.00 0.00 0.00 0.00 0.00
0.01 0.01 0.00 0.00 0.00 0.00 0.00 0.00 0.00 0.00 0.00 0.00 0.00 0.00 0.00 0.00 0.00 0.00 0.00 0.00 0.00 0.00 0.00 0.00 0.00 0.01 0.02 0.00 0.00 0.00 0.00 0.00 0.00 0.00 0.00 0.00 0.00 0.00 0.00 0.01 0.00 0.00 0.00 0.00 0.00 0.00 0.00
0.00 0.00 0.01 0.01 0.01 0.01 0.01 0.00 0.00 0.00 0.00 0.00 0.00 0.00 0.00 0.00 0.00 0.00 0.00 0.00 0.00 0.00 0.00 0.00 0.00 0.00 0.00 0.00 0.00 0.00 0.00 0.00 0.00 0.00 0.00 0.00 0.00 0.00 0.00 0.01 0.00 0.00 0.00 0.00 0.00 0.00 0.00
0.00 0.00 0.00 0.00 0.00 0.00 0.01 0.00 0.00 0.00 0.01 0.00 0.00 0.00 0.00 0.00 0.00 0.00 0.00 0.00 0.00 0.00 0.00 0.00 0.00 0.00 0.00 0.00 0.00 0.00 0.00 0.00 0.00 0.00 0.00 0.00 0.00 0.00 0.00 0.01 0.01 0.00 0.00 0.00 0.00 0.00 0.00
0.00 0.00 0.00 0.00 0.00 0.00 0.00 0.00 0.00 0.00 0.01 0.01 0.00 0.00 0.00 0.00 0.00 0.00 0.00 0.00 0.00 0.00 0.00 0.00 0.00 0.00 0.00 0.00 0.00 0.00 0.00 0.00 0.00 0.00 0.00 0.00 0.00 0.00 0.00 0.01 0.01 0.00 0.00 0.00 0.00 0.00 0.00
0.00 0.00 0.00 0.00 0.00 0.00 0.00 0.00 0.00 0.00 0.00 0.01 0.00 0.00 0.00 0.00 0.00 0.00 0.00 0.00 0.00 0.00 0.00 0.00 0.00 0.00 0.00 0.00 0.00 0.00 0.00 0.00 0.00 0.00 0.00 0.00 0.00 0.00 0.00 0.00 0.00 0.01 0.00 0.00 0.00 0.00 0.00
0.00 0.00 0.00 0.00 0.00 0.00 0.00 0.00 0.00 0.00 0.00 0.00 0.00 0.00 0.00 0.00 0.00 0.00 0.00 0.00 0.00 0.00 0.00 0.00 0.00 0.00 0.00 0.00 0.00 0.00 0.00 0.00 0.00 0.00 0.00 0.00 0.00 0.00 0.00 0.00 0.00 0.00 0.00 0.00 0.00 0.00 0.00
0.00 0.00 0.00 0.00 0.00 0.01 0.01 0.00 0.00 0.00 0.00 0.00 0.00 0.00 0.00 0.00 0.00 0.00 0.00 0.00 0.00 0.00 0.00 0.00 0.00 0.00 0.00 0.00 0.00 0.00 0.00 0.00 0.00 0.00 0.00 0.00 0.00 0.00 0.00 0.00 0.00 0.00 0.00 0.00 0.00 0.00 0.00
0.00 0.00 0.00 0.00 0.00 0.01 0.01 0.01 0.01 0.01 0.01 0.00 0.00 0.00 0.00 0.00 0.00 0.00 0.00 0.00 0.00 0.00 0.00 0.00 0.00 0.00 0.00 0.00 0.00 0.00 0.00 0.00 0.00 0.00 0.00 0.00 0.00 0.00 0.00 0.00 0.00 0.00 0.00 0.00 0.00 0.00 0.00
0.00 0.00 0.00 0.00 0.00 0.00 0.01 0.01 0.01 0.01 0.01 0.00 0.00 0.00 0.00 0.00 0.00 0.00 0.00 0.00 0.00 0.00 0.00 0.00 0.00 0.00 0.00 0.00 0.00 0.00 0.00 0.00 0.00 0.00 0.00 0.00 0.00 0.00 0.00 0.00 0.00 0.00 0.00 0.00 0.00 0.00 0.00
0.00 0.00 0.00 0.00 0.00 0.00 0.00 0.00 0.00 0.00 0.00 0.00 0.00 0.00 0.00 0.00 0.00 0.00 0.00 0.00 0.00 0.00 0.00 0.00 0.00 0.00 0.00 0.00 0.00 0.00 0.00 0.00 0.00 0.00 0.00 0.00 0.00 0.00 0.00 0.00 0.00 0.00 0.00 0.00 0.00 0.00 0.00
0.00 0.00 0.00 0.00 0.00 0.00 0.00 0.00 0.00 0.00 0.00 0.01 0.00 0.00 0.00 0.00 0.00 0.00 0.00 0.00 0.00 0.00 0.00 0.00 0.00 0.00 0.00 0.00 0.00 0.00 0.00 0.00 0.00 0.00 0.00 0.00 0.00 0.00 0.00 0.00 0.00 0.00 0.00 0.00 0.00 0.00 0.00
0.00 0.00 0.00 0.00 0.00 0.00 0.00 0.00 0.00 0.00 0.01 0.01 0.00 0.00 0.00 0.00 0.00 0.00 0.00 0.00 0.00 0.00 0.00 0.00 0.00 0.00 0.00 0.00 0.00 0.00 0.00 0.00 0.00 0.00 0.00 0.00 0.00 0.00 0.00 0.00 0.00 0.00 0.00 0.00 0.00 0.00 0.00
0.00 0.00 0.00 0.00 0.00 0.00 0.00 0.00 0.00 0.00 0.00 0.00 0.00 0.00 0.00 0.00 0.00 0.01 0.00 0.00 0.00 0.00 0.00 0.00 0.00 0.00 0.00 0.00 0.00 0.00 0.00 0.00 0.00 0.00 0.00 0.00 0.00 0.00 0.00 0.00 0.00 0.00 0.00 0.00 0.00 0.00 0.00
0.00 0.00 0.00 0.00 0.00 0.00 0.00 0.00 0.00 0.00 0.00 0.00 0.00 0.00 0.00 0.00 0.00 0.01 0.01 0.00 0.00 0.00 0.00 0.00 0.00 0.00 0.00 0.00 0.00 0.00 0.00 0.00 0.00 0.00 0.00 0.00 0.00 0.00 0.00 0.00 0.00 0.00 0.00 0.00 0.00 0.00 0.00
0.00 0.00 0.00 0.00 0.00 0.00 0.00 0.00 0.00 0.00 0.00 0.00 0.00 0.00 0.00 0.00 0.03 0.02 0.00 0.00 0.00 0.00 0.00 0.00 0.00 0.00 0.00 0.00 0.00 0.00 0.00 0.00 0.00 0.00 0.00 0.00 0.00 0.00 0.00 0.00 0.00 0.00 0.00 0.00 0.00 0.00 0.00
0.01 0.01 0.01 0.01 0.01 0.00 0.00 0.00 0.00 0.00 0.00 0.00 0.01 0.01 0.00 0.04 0.04 0.01 0.00 0.00 0.00 0.00 0.00 0.00 0.00 0.00 0.00 0.00 0.00 0.00 0.00 0.00 0.00 0.00 0.00 0.00 0.00 0.00 0.00 0.00 0.00 0.00 0.00 0.00 0.00 0.00 0.00
0.01 0.01 0.01 0.01 0.01 0.00 0.00 0.00 0.00 0.00 0.00 0.03 0.02 0.00 0.00 0.01 0.02 0.01 0.00 0.00 0.01 0.00 0.00 0.00 0.00 0.00 0.00 0.00 0.00 0.00 0.00 0.00 0.00 0.00 0.00 0.00 0.00 0.00 0.00 0.00 0.00 0.00 0.00 0.00 0.00 0.00 0.00
0.01 0.01 0.01 0.02 0.01 0.01 0.01 0.00 0.00 0.00 0.00 0.03 0.03 0.02 0.01 0.05 0.02 0.01 0.01 0.01 0.01 0.01 0.01 0.01 0.00 0.00 0.00 0.00 0.00 0.00 0.00 0.00 0.00 0.00 0.00 0.00 0.00 0.00 0.00 0.00 0.00 0.00 0.00 0.00 0.00 0.00 0.00
0.02 0.01 0.02 0.02 0.02 0.02 0.02 0.01 0.01 0.00 0.01 0.03 0.03 0.03 0.05 0.02 0.01 0.00 0.01 0.01 0.00 0.00 0.01 0.01 0.01 0.00 0.00 0.00 0.00 0.00 0.00 0.00 0.00 0.00 0.00 0.00 0.00 0.00 0.00 0.00 0.00 0.00 0.00 0.00 0.00 0.00 0.00
0.01 0.02 0.03 0.02 0.01 0.02 0.03 0.01 0.00 0.00 0.02 0.03 0.03 0.02 0.02 0.01 0.00 0.01 0.01 0.01 0.01 0.01 0.01 0.01 0.01 0.00 0.00 0.00 0.00 0.00 0.00 0.00 0.00 0.00 0.00 0.00 0.00 0.00 0.00 0.00 0.00 0.00 0.00 0.00 0.00 0.00 0.00
0.03 0.03 0.02 0.02 0.01 0.02 0.02 0.02 0.01 0.01 0.05 0.06 0.04 0.03 0.03 0.01 0.01 0.01 0.01 0.01 0.01 0.00 0.00 0.00 0.00 0.00 0.00 0.00 0.00 0.00 0.00 0.00 0.00 0.00 0.00 0.00 0.00 0.00 0.00 0.00 0.00 0.00 0.00 0.00 0.00 0.00 0.00
0.02 0.02 0.02 0.02 0.02 0.02 0.02 0.02 0.02 0.01 0.04 0.07 0.05 0.06 0.04 0.01 0.01 0.00 0.00 0.00 0.00 0.00 0.00 0.00 0.00 0.00 0.00 0.00 0.00 0.00 0.00 0.00 0.00 0.00 0.00 0.00 0.00 0.00 0.00 0.00 0.00 0.00 0.00 0.00 0.00 0.00 0.00
0.03 0.02 0.01 0.01 0.01 0.03 0.03 0.03 0.03 0.02 0.02 0.06 0.05 0.08 0.06 0.02 0.00 0.00 0.00 0.00 0.00 0.00 0.00 0.00 0.00 0.00 0.00 0.00 0.00 0.00 0.00 0.00 0.00 0.00 0.00 0.00 0.00 0.00 0.00 0.00 0.00 0.00 0.00 0.00 0.00 0.00 0.00
0.01 0.01 0.02 0.03 0.04 0.03 0.02 0.02 0.03 0.02 0.01 0.05 0.04 0.07 0.07 0.03 0.00 0.00 0.00 0.00 0.01 0.00 0.00 0.00 0.00 0.00 0.00 0.00 0.00 0.01 0.00 0.00 0.00 0.00 0.00 0.00 0.00 0.00 0.00 0.00 0.00 0.00 0.00 0.00 0.00 0.00 0.00
0.01 0.01 0.02 0.03 0.02 0.01 0.03 0.01 0.01 0.02 0.01 0.05 0.03 0.08 0.05 0.03 0.00 0.00 0.00 0.00 0.00 0.01 0.01 0.00 0.00 0.00 0.00 0.00 0.01 0.00 0.00 0.00 0.00 0.00 0.00 0.00 0.00 0.00 0.00 0.00 0.00 0.00 0.00 0.00 0.00 0.00 0.00
0.01 0.04 0.04 0.03 0.01 0.02 0.02 0.01 0.02 0.01 0.01 0.06 0.03 0.05 0.06 0.04 0.00 0.00 0.00 0.01 0.01 0.01 0.01 0.00 0.00 0.00 0.00 0.01 0.01 0.00 0.00 0.00 0.00 0.00 0.00 0.00 0.00 0.00 0.00 0.00 0.00 0.00 0.00 0.00 0.00 0.00 0.00
0.03 0.03 0.03 0.02 0.02 0.02 0.02 0.03 0.03 0.02 0.03 0.06 0.03 0.02 0.05 0.04 0.01 0.00 0.00 0.00 0.00 0.00 0.00 0.00 0.00 0.00 0.00 0.00 0.00 0.00 0.00 0.00 0.00 0.00 0.00 0.00 0.00 0.00 0.00 0.00 0.00 0.00 0.00 0.00 0.00 0.00 0.00
MSLP
1023.33 1023.00 1022.73 1022.39 1022.07 1021.76 1021.55 1021.18 1020.73 1020.45 1020.02 1019.55 1019.09 1018.81 1018.33 1017.99 1017.69 1017.38 1017.09 1016.89 1016.75 1016.26 1016.16 1016.12 1015.58 1016.00 1016.10 1015.08 1013.48 1012.65 1013.23 1013.27 1013.31 1013.66 1013.31 1013.02 1012.60 1012.13 1011.98 1012.28 1013.04 1013.68 1013.89 1013.68 1014.06 1013.30 1013.00
1023.47 1023.11 1022.83 1022.47 1022.17 1021.90 1021.56 1021.20 1020.84 1020.51 1020.09 1019.61 1019.13 1018.69 1018.33 1017.93 1017.38 1017.12 1016.78 1016.53 1016.35 1016.21 1016.03 1015.97 1015.37 1015.53 1015.51 1013.90 1012.20 1012.43 1012.85 1012.92 1012.79 1013.05 1012.97 1012.78 1012.23 1011.83 1011.51 1010.81 1011.87 1011.84 1012.75 1013.33 1014.01 1014.28 1013.28
1023.60 1023.35 1022.95 1022.53 1022.25 1021.94 1021.67 1021.30 1020.89 1020.49 1020.14 1019.67 1019.18 1018.76 1018.37 1017.97 1017.44 1016.86 1016.55 1016.25 1015.96 1015.85 1015.41 1015.79 1015.60 1014.88 1014.71 1013.13 1012.46 1012.46 1012.81 1013.04 1013.20 1013.16 1012.89 1012.71 1012.24 1011.98 1012.02 1010.87 1011.36 1012.15 1012.86 1013.81 1013.97 1014.03 1013.44
1024.02 1023.79 1023.41 1023.00 1022.62 1022.10 1021.87 1021.49 1021.07 1020.54 1020.04 1019.65 1019.20 1018.65 1018.23 1017.84 1017.40 1016.94 1016.33 1016.05 1015.56 1015.45 1015.47 1014.91 1015.47 1014.52 1013.18 1012.01 1012.15 1012.53 1012.64 1012.70 1012.94 1013.08 1013.13 1012.82 1012.77 1013.09 1012.55 1011.63 1011.76 1011.90 1012.42 1012.80 1012.88 1013.62 1013.48
1024.47 1024.03 1023.73 1023.41 1023.05 1022.62 1022.23 1021.75 1021.30 1020.73 1020.14 1019.59 1019.10 1018.58 1018.16 1017.66 1017.06 1016.82 1016.36 1015.59 1015.34 1015.05 1014.98 1014.99 1014.67 1014.56 1012.12 1012.35 1012.37 1011.91 1012.00 1012.17 1012.40 1012.92 1013.19 1013.13 1013.16 1013.05 1012.54 1012.26 1011.91 1011.38 1010.63 1011.28 1012.05 1012.29 1012.81
1024.75 1024.48 1024.08 1023.75 1023.35 1022.94 1022.44 1021.86 1021.43 1020.87 1020.35 1019.76 1019.30 1018.53 1018.10 1017.58 1016.89 1016.34 1016.04 1015.45 1014.51 1014.55 1014.62 1014.37 1014.01 1014.28 1011.85 1011.19 1011.29 1011.48 1011.91 1012.10 1011.93 1012.46 1013.17 1013.03 1012.87 1012.40 1012.32 1012.08 1010.51 1009.73 1009.65 1010.22 1010.19 1011.51 1011.73
1025.16 1024.67 1024.20 1023.93 1023.50 1023.02 1022.51 1022.03 1021.52 1020.87 1020.34 1019.68 1019.25 1018.69 1017.94 1017.32 1016.78 1016.17 1015.65 1014.45 1014.69 1014.00 1013.35 1011.92 1011.09 1010.48 1010.25 1010.62 1011.18 1011.38 1011.48 1011.69 1011.56 1011.75 1011.89 1012.04 1011.71 1011.13 1010.97 1010.40 1009.65 1008.64 1008.75 1009.14 1009.74 1010.25 1010.81
1025.26 1024.89 1024.42 1024.03 1023.64 1023.11 1022.51 1021.98 1021.43 1020.88 1020.38 1019.79 1019.23 1018.57 1017.98 1017.23 1016.37 1015.80 1015.29 1014.03 1012.94 1013.58 1011.84 1010.94 1010.43 1009.97 1009.93 1010.18 1010.32 1010.72 1011.36 1011.07 1010.94 1010.55 1010.89 1010.80 1009.95 1010.07 1009.55 1009.28 1009.21 1008.30 1008.00 1008.72 1009.75 1010.00 1010.32
1025.33 1024.83 1024.41 1024.16 1023.82 1023.39 1022.86 1022.26 1021.60 1020.98 1020.41 1019.95 1019.29 1018.56 1017.82 1016.99 1015.94 1015.50 1014.38 1013.55 1013.43 1013.11 1011.78 1009.10 1008.24 1008.49 1008.95 1009.85 1009.03 1009.54 1010.75 1010.27 1009.79 1009.91 1009.36 1008.37 1007.54 1009.28 1008.52 1008.20 1008.45 1007.71 1007.40 1007.88 1008.33 1009.20 1009.92
1025.45 1025.10 1024.73 1024.18 1023.64 1023.36 1022.96 1022.42 1021.75 1021.11 1020.64 1019.94 1019.27 1018.63 1018.04 1017.21 1015.68 1014.13 1013.80 1013.78 1013.42 1013.32 1011.43 1007.96 1007.60 1007.20 1007.95 1008.90 1008.38 1008.29 1009.65 1009.57 1009.14 1008.75 1008.73 1008.10 1007.76 1008.05 1007.88 1007.74 1008.14 1007.44 1007.47 1007.85 1008.57 1009.14 1009.01
1025.63 1025.30 1024.83 1024.29 1023.73 1023.29 1022.85 1022.22 1021.72 1021.23 1020.63 1019.90 1019.25 1018.65 1018.09 1017.67 1016.42 1014.41 1013.33 1013.69 1013.36 1013.12 1010.69 1006.95 1007.36 1007.11 1007.44 1008.06 1007.29 1007.72 1008.83 1008.84 1008.25 1007.92 1007.86 1007.48 1007.42 1007.55 1007.28 1006.94 1007.52 1007.49 1007.77 1008.40 1008.84 1008.83 1008.30
1025.89 1025.46 1024.88 1024.29 1023.66 1023.12 1022.75 1022.16 1021.79 1021.18 1020.43 1019.85 1019.20 1018.52 1018.02 1016.72 1016.06 1014.59 1013.76 1013.27 1013.31 1012.13 1008.29 1006.90 1007.20 1007.12 1007.25 1007.43 1007.37 1007.98 1008.50 1008.49 1008.19 1007.67 1007.41 1007.55 1008.43 1007.72 1007.15 1007.38 1007.44 1008.26 1008.56 1009.06 1009.12 1008.97 1008.06
1025.73 1025.27 1024.79 1024.23 1023.73 1023.24 1022.64 1021.99 1021.43 1020.88 1020.44 1019.85 1018.99 1018.22 1017.71 1016.78 1015.44 1014.29 1013.82 1012.96 1012.06 1008.89 1005.98 1005.67 1005.96 1006.28 1006.30 1006.35 1007.00 1006.99 1007.73 1007.69 1006.82 1006.84 1006.74 1007.58 1008.01 1008.19 1008.35 1008.21 1008.45 1008.04 1008.25 1008.69 1008.97 1008.70 1006.64
1025.73 1025.21 1024.75 1024.22 1023.72 1023.18 1022.54 1022.00 1021.28 1020.88 1020.29 1019.60 1018.80 1017.67 1015.83 1014.98 1014.55 1014.52 1014.39 1012.72 1008.94 1005.19 1004.77 1004.83 1005.03 1005.53 1005.38 1005.42 1005.91 1006.24 1006.32 1006.54 1006.27 1005.06 1005.24 1006.33 1007.21 1007.87 1007.70 1007.08 1007.21 1007.26 1006.87 1006.42 1006.66 1006.38 1006.09
1025.46 1025.09 1024.66 1024.11 1023.51 1023.13 1022.62 1021.88 1021.26 1020.65 1020.09 1019.31 1018.19 1016.48 1014.61 1013.84 1013.76 1013.99 1013.78 1010.69 1005.32 1004.65 1003.85 1004.01 1004.93 1004.55 1004.56 1004.35 1004.27 1005.10 1004.54 1004.41 1004.85 1004.22 1002.93 1004.67 1005.91 1006.93 1007.56 1007.99 1007.46 1007.43 1006.71 1006.16 1006.31 1006.19 1005.40
1025.35 1024.88 1024.37 1023.85 1023.31 1022.75 1022.35 1021.80 1021.18 1020.47 1019.80 1018.98 1017.82 1016.33 1013.70 1013.19 1013.20 1013.63 1012.50 1007.61 1005.80 1004.75 1004.06 1003.52 1003.06 1002.97 1002.39 1002.71 1003.52 1003.44 1003.30 1002.19 1002.69 1003.39 1003.22 1003.02 1005.10 1007.18 1008.21 1008.46 1007.99 1006.95 1006.30 1006.75 1006.31 1005.44 1004.44
1025.09 1024.59 1024.12 1023.57 1023.10 1022.50 1022.06 1021.59 1020.98 1020.29 1019.59 1018.73 1017.44 1015.95 1012.93 1012.92 1013.01 1013.14 1010.59 1008.15 1007.12 1006.32 1005.38 1004.43 1003.19 1002.03 1001.42 1001.52 1001.54 1001.45 1000.39 1000.69 1001.31 1001.74 1003.48 1003.33 1003.32 1007.22 1008.15 1007.14 1006.43 1007.26 1006.23 1005.76 1005.29 1004.50 1003.51
1024.79 1024.29 1023.80 1023.30 1022.92 1022.34 1021.72 1021.30 1020.75 1020.09 1019.38 1018.56 1017.85 1015.98 1012.96 1013.76 1013.73 1012.63 1010.71 1010.25 1008.80 1007.22 1005.61 1004.90 1004.18 1002.96 1001.44 1000.44 1000.59 1000.45 999.95 999.44 999.69 1000.83 1001.28 1002.76 1003.22 1005.14 1006.02 1006.86 1006.76 1005.98 1005.30 1005.09 1004.63 1004.44 1004.08
1024.45 1023.76 1023.05 1022.62 1022.45 1021.90 1021.46 1020.96 1020.48 1019.93 1019.36 1019.03 1017.62 1015.78 1013.79 1013.69 1013.42 1012.25 1011.35 1010.55 1009.31 1007.86 1007.03 1005.79 1004.28 1003.37 1001.99 1000.87 1000.37 1000.05 999.79 999.76 1000.14 1000.44 1000.97 1001.83 1002.46 1004.03 1005.95 1007.05 1006.81 1006.12 1005.33 1004.68 1004.79 1004.51 1003.47
1024.07 1023.59 1022.84 1022.26 1021.91 1021.45 1020.99 1020.59 1020.08 1019.69 1019.26 1019.25 1018.01 1015.93 1013.71 1013.56 1013.05 1013.33 1012.26 1010.89 1009.36 1008.04 1006.95 1006.29 1005.04 1003.69 1002.48 1001.32 1000.22 999.48 999.85 1000.92 1000.80 1000.74 1001.02 1001.50 1001.49 1001.42 1001.01 1001.58 1003.67 1005.08 1004.71 1004.86 1004.77 1004.68 1002.77
1023.28 1022.72 1022.46 1022.01 1021.39 1020.85 1020.38 1020.17 1019.76 1019.25 1018.92 1019.12 1017.88 1016.32 1015.84 1014.22 1013.57 1013.62 1012.91 1012.13 1010.34 1008.85 1007.32 1006.59 1005.33 1003.87 1002.30 1000.87 999.90 999.66 1000.08 1001.35 1001.94 1001.75 1001.80 1001.29 1001.33 1000.96 1001.20 1002.16 1002.37 1002.54 1003.00 1003.81 1003.94 1002.48 1002.97
1022.77 1022.02 1021.78 1021.28 1020.85 1020.17 1019.76 1019.39 1019.21 1018.75 1018.58 1018.62 1017.80 1017.26 1016.41 1015.72 1014.53 1013.70 1012.82 1011.41 1010.59 1009.48 1009.40 1007.54 1006.15 1003.64 1002.42 1000.55 999.36 999.39 999.81 1000.38 1000.53 1001.85 1001.68 1001.36 1001.69 1001.96 1002.14 1002.91 1002.84 1002.92 1002.71 1002.88 1002.62 1002.88 1002.60
1022.26 1021.62 1020.96 1020.39 1020.08 1019.49 1019.06 1018.71 1018.46 1018.23 1018.26 1017.99 1017.27 1017.12 1016.82 1015.12 1014.16 1013.43 1012.31 1011.55 1010.63 1010.42 1008.05 1007.45 1006.54 1004.18 1001.30 999.91 999.57 999.01 999.11 999.44 999.54 1000.25 1000.73 1001.25 1001.80 1002.87 1002.90 1003.36 1003.58 1003.35 1001.70 1001.75 1001.86 1002.24 1001.92
1021.71 1020.96 1020.40 1019.73 1019.16 1018.60 1018.29 1018.03 1017.79 1017.54 1017.44 1017.43 1017.05 1016.96 1016.31 1014.36 1013.74 1012.87 1012.15 1011.70 1010.85 1010.38 1009.21 1006.76 1005.75 1003.87 1000.75 999.51 999.93 1000.02 999.97 999.92 1000.01 1000.18 1000.32 1000.52 1001.46 1002.18 1003.51 1003.71 1003.24 1000.89 1001.29 1000.80 1001.16 1001.30 1001.77
1021.14 1020.40 1019.65 1018.97 1018.52 1018.04 1017.71 1017.28 1016.94 1016.88 1016.60 1016.48 1016.37 1016.33 1015.68 1013.98 1013.20 1012.34 1011.88 1011.25 1010.49 1009.52 1008.11 1006.90 1003.60 1001.60 1000.25 999.90 998.83 999.39 1000.25 1000.59 1001.02 1000.86 1000.90 1000.57 1000.89 1001.75 1002.69 1002.69 1001.59 1001.58 1001.65 1001.27 1001.03 1001.33 1001.62
1020.49 1019.86 1018.99 1018.44 1017.93 1017.48 1016.99 1016.66 1016.37 1016.13 1015.85 1015.66 1015.45 1015.47 1015.19 1013.77 1012.43 1011.84 1011.50 1011.26 1010.25 1009.17 1007.30 1005.70 1003.77 1001.23 999.59 999.19 997.54 997.65 998.15 999.05 1000.39 1001.53 1001.78 1001.60 1000.88 1000.96 1001.96 1001.98 1001.33 1000.93 1001.33 1001.62 1001.87 1001.65 1001.80
1019.75 1019.05 1018.50 1017.96 1017.45 1016.77 1016.38 1015.99 1015.60 1015.36 1015.09 1014.98 1014.54 1014.62 1014.39 1013.02 1012.11 1011.58 1011.11 1010.76 1010.57 1010.10 1008.30 1006.20 1004.43 1002.10 999.21 998.19 997.21 997.28 997.17 997.59 999.35 1000.14 1001.51 1001.94 1001.58 1001.12 1001.71 1002.05 1001.89 1002.46 1002.65 1002.79 1003.12 1003.24 1002.67
1019.08 1018.32 1017.80 1017.30 1016.70 1016.14 1015.73 1015.24 1014.88 1014.60 1014.29 1014.30 1013.69 1013.62 1013.61 1012.51 1011.43 1011.06 1010.37 1010.37 1009.80 1009.47 1008.61 1007.05 1006.24 1002.01 1000.58 998.78 997.25 996.76 996.46 997.81 998.53 999.41 1000.06 1000.84 1001.41 1001.67 1002.24 1002.91 1003.44 1003.58 1004.31 1004.20 1004.67 1004.49 1004.82
1018.47 1017.82 1017.25 1016.61 1016.05 1015.51 1015.03 1014.60 1014.18 1013.90 1013.59 1013.43 1012.99 1012.63 1012.54 1012.24 1010.86 1010.25 1009.37 1008.87 1008.80 1008.55 1008.56 1007.57 1005.77 1003.64 1000.12 998.96 997.55 997.53 997.74 998.55 998.65 999.95 1001.15 1001.40 1001.16 1001.48 1002.54 1003.74 1004.65 1005.20 1005.35 1005.80 1005.82 1006.09 1006.83
Thickness
5606 5606 5605 5604 5603 5601 5599 5598 5600 5598 5597 5597 5598 5595 5594 5593 5591 5589 5585 5580 5574 5572 5567 5560 5557 5544 5537 5535 5540 5558 5558 5561 5569 5572 5578 5586 5595 5608 5612 5625 5627 5622 5629 5631 5642 5660 5667
5599 5598 5597 5596 5594 5592 5591 5590 5589 5588 5588 5589 5590 5590 5588 5587 5589 5586 5583 5579 5574 5569 5564 5559 5556 5546 5539 5537 5558 5555 5556 5558 5566 5569 5574 5583 5593 5606 5609 5630 5626 5638 5637 5626 5630 5637 5658
5591 5590 5589 5588 5586 5584 5582 5582 5581 5581 5581 5582 5582 5583 5583 5581 5581 5583 5580 5577 5573 5568 5567 5557 5552 5550 5540 5544 5552 5551 5549 5550 5556 5560 5566 5576 5586 5590 5597 5616 5627 5620 5618 5618 5624 5629 5644
5581 5578 5577 5577 5577 5577 5575 5575 5574 5575 5576 5576 5576 5578 5577 5577 5575 5575 5577 5574 5573 5567 5562 5561 5551 5552 5548 5558 5553 5548 5547 5547 5551 5555 5559 5567 5573 5573 5583 5604 5606 5610 5617 5617 5639 5632 5645
5567 5568 5566 5566 5566 5566 5566 5568 5568 5569 5571 5571 5571 5571 5571 5572 5574 5570 5569 5573 5569 5567 5562 5556 5554 5547 5556 5555 5548 5551 5553 5548 5551 5550 5552 5557 5560 5564 5575 5580 5585 5601 5620 5630 5632 5643 5640
5556 5556 5555 5556 5557 5558 5560 5562 5563 5563 5563 5563 5563 5565 5565 5565 5568 5569 5566 5566 5570 5566 5561 5557 5555 5542 5559 5558 5555 5550 5549 5550 5549 5545 5540 5546 5554 5561 5569 5562 5577 5609 5629 5636 5646 5641 5640
5548 5550 5551 5551 5552 5553 5554 5554 5554 5555 5556 5557 5557 5557 5560 5560 5561 5562 5562 5569 5565 5564 5564 5572 5573 5572 5570 5565 5555 5547 5546 5546 5548 5545 5541 5549 5547 5553 5575 5596 5618 5637 5638 5640 5651 5646 5640
5542 5542 5543 5543 5543 5544 5545 5546 5546 5546 5546 5546 5547 5550 5552 5554 5557 5558 5558 5563 5570 5557 5568 5576 5573 5574 5571 5564 5553 5550 5545 5542 5543 5545 5547 5546 5553 5576 5599 5605 5608 5622 5634 5636 5635 5641 5642
5533 5534 5534 5532 5530 5530 5531 5532 5533 5534 5535 5536 5538 5541 5543 5546 5552 5552 5557 5559 5555 5554 5555 5584 5589 5577 5571 5562 5561 5554 5542 5544 5547 5543 5551 5565 5594 5583 5597 5604 5601 5623 5635 5640 5646 5638 5635
5525 5524 5523 5524 5524 5522 5520 5519 5520 5521 5521 5522 5524 5527 5529 5534 5545 5555 5552 5548 5547 5544 5545 5584 5582 5583 5574 5565 5560 5566 5551 5548 5551 5553 5559 5568 5584 5584 5589 5597 5605 5614 5636 5634 5631 5630 5628
5514 5512 5510 5510 5509 5508 5507 5507 5507 5505 5506 5508 5511 5513 5515 5515 5525 5540 5548 5538 5538 5538 5532 5588 5578 5585 5576 5566 5571 5563 5558 5553 5558 5563 5568 5573 5579 5580 5590 5608 5615 5619 5627 5626 5623 5627 5633
5498 5497 5496 5495 5495 5494 5491 5490 5488 5489 5492 5492 5494 5496 5500 5509 5514 5524 5529 5532 5528 5531 5530 5573 5574 5572 5569 5568 5566 5560 5552 5559 5565 5567 5574 5574 5566 5582 5595 5604 5610 5605 5608 5611 5615 5619 5606
5486 5482 5479 5478 5476 5473 5473 5472 5471 5471 5472 5476 5482 5485 5486 5492 5502 5510 5515 5522 5523 5534 5574 5577 5573 5574 5572 5570 5564 5563 5552 5552 5563 5557 5561 5565 5566 5572 5579 5581 5588 5604 5603 5590 5587 5586 5615
5468 5466 5462 5459 5457 5455 5456 5456 5456 5454 5456 5461 5466 5474 5484 5489 5492 5493 5495 5511 5529 5572 5576 5579 5575 5572 5571 5576 5569 5565 5563 5554 5566 5583 5580 5563 5557 5567 5582 5597 5595 5605 5617 5610 5597 5613 5629
5456 5451 5446 5443 5441 5437 5436 5437 5438 5438 5438 5442 5449 5463 5475 5481 5482 5479 5480 5507 5556 5565 5580 5567 5563 5564 5568 5576 5580 5569 5575 5573 5572 5586 5595 5580 5574 5580 5582 5583 5597 5593 5592 5629 5608 5608 5626
5440 5436 5431 5427 5424 5423 5420 5419 5419 5420 5421 5425 5433 5444 5463 5467 5467 5461 5472 5521 5544 5558 5560 5562 5563 5572 5575 5577 5568 5572 5574 5595 5587 5589 5600 5604 5581 5568 5564 5570 5579 5599 5617 5595 5600 5594 5612
5425 5420 5416 5410 5408 5406 5403 5401 5401 5402 5404 5408 5417 5421 5449 5446 5447 5444 5467 5502 5515 5525 5531 5536 5549 5567 5581 5574 5576 5579 5597 5602 5600 5597 5587 5595 5600 5556 5557 5573 5590 5579 5589 5602 5615 5629 5630
5409 5405 5400 5395 5391 5389 5387 5384 5383 5383 5385 5389 5391 5398 5426 5416 5414 5425 5450 5456 5478 5494 5513 5517 5523 5537 5560 5578 5573 5578 5586 5603 5612 5604 5592 5594 5591 5563 5571 5569 5578 5596 5604 5612 5611 5612 5622
5396 5392 5388 5382 5376 5374 5370 5368 5366 5365 5363 5362 5370 5384 5397 5393 5392 5413 5422 5416 5435 5465 5468 5486 5504 5517 5541 5552 5555 5572 5586 5595 5596 5595 5589 5591 5582 5562 5554 5556 5563 5574 5594 5614 5607 5602 5618
5379 5374 5372 5368 5363 5360 5355 5350 5347 5344 5341 5335 5338 5350 5376 5369 5371 5360 5371 5391 5412 5434 5449 5461 5477 5494 5509 5525 5551 5562 5572 5561 5576 5585 5582 5583 5589 5595 5606 5620 5595 5574 5590 5595 5599 5587 5626
5370 5366 5358 5351 5347 5345 5339 5331 5325 5321 5317 5310 5315 5326 5323 5339 5348 5341 5353 5356 5376 5397 5425 5438 5446 5467 5489 5507 5531 5539 5556 5543 5548 5559 5565 5576 5562 5599 5610 5595 5602 5603 5601 5595 5587 5619 5600
5358 5354 5346 5340 5332 5329 5323 5314 5307 5305 5298 5294 5292 5293 5304 5307 5325 5331 5340 5360 5364 5378 5371 5388 5402 5456 5472 5488 5519 5527 5540 5544 5553 5547 5557 5567 5556 5559 5564 5572 5585 5582 5597 5598 5604 5603 5611
5343 5338 5331 5324 5316 5312 5307 5302 5298 5291 5285 5281 5287 5286 5279 5306 5314 5321 5338 5340 5349 5356 5385 5395 5398 5419 5465 5484 5509 5528 5537 5546 5553 5549 5552 5554 5544 5543 5561 5559 5557 5558 5592 5600 5603 5603 5614
5326 5320 5313 5308 5303 5301 5297 5293 5289 5285 5282 5281 5281 5276 5278 5299 5307 5316 5322 5328 5338 5342 5352 5386 5395 5403 5460 5495 5493 5499 5511 5522 5531 5540 5550 5551 5547 5549 5528 5542 5544 5600 5585 5605 5602 5605 5608
5308 5302 5297 5295 5292 5291 5289 5286 5285 5282 5281 5281 5280 5274 5274 5288 5303 5311 5314 5323 5335 5349 5363 5373 5407 5437 5462 5477 5488 5488 5489 5494 5494 5513 5529 5548 5549 5537 5529 5543 5574 5568 5572 5585 5592 5596 5604
5290 5286 5285 5284 5284 5284 5283 5282 5280 5279 5279 5280 5279 5274 5271 5281 5301 5306 5306 5310 5319 5335 5361 5382 5403 5437 5466 5474 5492 5488 5494 5510 5492 5488 5502 5521 5544 5547 5536 5541 5555 5581 5573 5578 5583 5588 5595
5278 5277 5276 5276 5276 5278 5278 5278 5278 5277 5277 5277 5278 5272 5270 5280 5294 5300 5304 5307 5317 5324 5345 5369 5382 5407 5460 5477 5487 5495 5508 5518 5499 5504 5496 5506 5521 5533 5536 5543 5558 5546 5551 5560 5568 5583 5583
5270 5272 5271 5271 5272 5273 5273 5274 5274 5275 5276 5273 5277 5273 5271 5278 5292 5295 5302 5300 5316 5324 5335 5354 5366 5414 5431 5465 5491 5502 5512 5504 5514 5517 5518 5516 5521 5526 5537 5535 5541 5533 5528 5556 5542 5548 5555
5265 5265 5266 5267 5268 5269 5270 5271 5271 5272 5273 5271 5274 5274 5273 5271 5288 5293 5304 5314 5319 5327 5333 5347 5373 5391 5450 5463 5486 5489 5492 5490 5512 5503 5491 5507 5525 5536 5541 5540 5502 5501 5514 5512 5519 5524 5525